SHIJIAN 6 04A (SJ-6 04A)

Satellite information

Favourite Embed

Satellite Type and Status

PAYLOADIN ORBIT

Key statistics

Satellite SHIJIAN 6 04A (SJ-6 04A) at a glance.

Uptime

5450

Days in orbit

Revolutions

≈ 15.1

Per day

Orbit

SSO

Sun Synchronous Orbit

Inclination

97.8

Latest

Satellite identification and parameters

Extended collection of information and parameters for SHIJIAN 6 04A (SJ-6 04A).

Object identification

Identified? True

Debris? False

Object name: SHIJIAN 6 04A (SJ-6 04A)

International designator: 2010-051A

Object number (NORAD): 37179

Object ID (CCSDS): 37179

Country: PEOPLES REPUBLIC OF CHINA (PRC)

Current information (Y/N): Y

RCS size: LARGE

Orbital parameters

Period: 95.179 minutes

Inclination: 97.8464 deg

SMA: 6905.396 km

Apoapsis: 542.799 km

Periapsis: 511.723 km

RAAN: 259.1414 deg

Eccentricy: 0.0022501

Argument of periapsis: 117.3866 deg

Mean anomaly: 242.9657 deg

Mean motion: 15.1293372 rev/day

Mean motion (dot): 0.00010613 rev/day2

B* drag term: 0.00060216927 1/REarth

Two-line elements (TLE)

Creation date: Sept. 7, 2025, 3:09 a.m.

Reference frame: TEME

Reference center: EARTH

Epoch: Sept. 7, 2025, 12:18 a.m. UTC

TLE line 0: 0 SHIJIAN 6 04A (SJ-6 04A)

TLE line 1: 1 37179U 10051A 25250.01302468 .00010613 00000-0 60217-3 0 9992

TLE line 2: 2 37179 97.8464 259.1414 0022501 117.3866 242.9657 15.12933720814051

Live tracking on map

Real-time ground track for satellite SHIJIAN 6 04A (SJ-6 04A).

In-orbit conjunctions

There are no conjunctions computed for SHIJIAN 6 04A (SJ-6 04A), at the moment. Check back to stay up to date, as we update our databases every day.

Go to all conjunctions

Associated space launch

SHIJIAN 6 04A (SJ-6 04A) was lifted into orbit during the mission ‘Long March 4B | Shijian 6G & Shijian 6H’, on board a Long March 4B space rocket.

The launch took place on Oct. 6, 2010, 12:49 a.m. from Launch Complex 7.

For more information about the launch, click the button.

Launch to space Long March 4B | Shijian 6G & Shijian 6H
Long March 4B | Shijian 6G & Shijian 6H

Agency: N/A

Status: Launch Successful

Launch date: Oct. 6, 2010, 12:49 a.m. UTC

Rocket: Long March 4B

Launch pad: Launch Complex 7

Location: Taiyuan Satellite Launch Center, People's Republic of China

...

Latest news about this satellite

There are no fresh news available about this satellite. Check back as we update our databases every day.


Newsletter sign-up

Weekly statistics, charts and insights to help you stay on top of the space industry.